The Cajun Classic - trainer 65 miles

Station: Oakdale - T Race

Distance: 65 Miles    

Release: 14-Sep-2017 07:30

Weather Release:    Arrival:

Wind at Release:     Wind at Arrival:

Temp at Release: °    Temp at Arrival: °

Lofts: 45

Birds: 181

Clocked: 132

Good Luck to Everyone!
Drops Pos Breeder Pigeon Name Color Sex Ent Arrival Speed To Win Eligible
1 Red Ass Ranch - TX 0137-AU17-RAR BB C 1 09:03:24.60 1224.708 00:00:00 Yes
2 Pigeon Palace - LA 0364-AU17-LAF BB H 1 09:03:40.90 1221.157 00:00:16 Yes
3 Texas Trio 2 - TX 1018-AU17-VPR BB H 1 09:03:41.80 1220.961 00:00:17 Yes
4 Pigeon Palace - LA 0320-AU17-LAF BBWF C 2 09:03:44.00 1220.484 00:00:19 Yes
5 Texas Trio 2 - TX 1017-AU17-VPR BBWF H 2 09:03:44.60 1220.353 00:00:20 Yes
6 Nanez Family Lofts - WI 4175-AU17-NANE BB H 1 09:03:45.00 1220.267 00:00:20 Yes
7 Espo Loft - SC 0955-AU17-ESPO BC C 1 09:03:45.50 1220.158 00:00:21 Yes
8 Johnson/Mailhes - LA 0161-AU17-LAF BC H 1 09:03:46.40 1219.963 00:00:22 Yes
9 Clear Springs Loft - FL 17034-AU17-WARD BB C 1 09:03:47.20 1219.790 00:00:23 Yes
10 Zero's Loft - NM 3316-AU17-AA BCPD H 1 09:03:48.70 1219.465 00:00:24 Yes
11 Ed Minvielle - LA 17041-AU17-A BBWF H 1 09:04:24.40 1211.779 00:01:00 Yes
12 Black Gold Loft - TX 22156-AU17-AA BB C 1 09:04:26.70 1211.287 00:01:02 Yes
13 A P C Loft - TX 17139-AU17-APC BB H 1 09:04:34.60 1209.601 00:01:10 Yes
14 El Dorado Loft - TX 0153-AU17-TEXA BB C 1 09:04:39.20 1208.621 00:01:15 Yes
15 Black Magic Loft - TX 0403-AU17-BLAC BB C 1 09:04:42.30 1207.962 00:01:18 Yes
16 Black Gold Loft - TX 0820-AU17-BLGO BC C 2 09:04:42.70 1207.877 00:01:18 Yes
17 Bionic Loft - LA 0664-AU17-CAJU BCWF H 1 09:04:43.10 1207.792 00:01:18 Yes
18 Bottoms Up Loft - TX 8657-AU17-AA BBP C 1 09:04:43.50 1207.707 00:01:19 Yes
19 John Fukumoto - HI 0366-AU17-HAWN BB H 1 09:04:49.40 1206.454 00:01:25 Yes
20 Poorshow Loft - LA 22408-AU17-AA SILV C 1 09:04:50.80 1206.157 00:01:26 Yes
21 Red Ass Ranch - TX 0133-AU17-RAR BBWF H 2 09:04:52.10 1205.882 00:01:27 Yes
22 Ganus Family Loft - IN 0751-AU17-GFL BC C 1 09:04:52.80 1205.734 00:01:28 Yes
23 Hollywood Lou Loft - FL 0033-AU17-HLOU BB H 1 09:04:53.40 1205.606 00:01:29 Yes
24 Espo Loft - SC 0957-AU17-ESPO BC H 2 09:04:58.20 1204.591 00:01:34 Yes
25 Mcconnell Loft - FL 1844-AU17-GHC BB H 1 09:04:59.30 1204.358 00:01:35 Yes
26 Ganus Family Loft - IN 0732-AU17-GFL BB C 2 09:05:03.80 1203.408 00:01:39 Yes
27 R & R Loft - LA 0143-AU17-MILL BB H 1 09:05:04.20 1203.324 00:01:40 Yes
28 Carroll Hoover - PA 1067-IF17-RLPC BB H 1 09:05:05.60 1203.029 00:01:41 Yes
29 Texas Trio 2 - TX 4084-AU17-TEXA BB H 3 09:05:05.90 1202.965 00:01:41 Yes
30 Hynes - LA 1358-AU17-SLID BC C 1 09:05:10.60 1201.975 00:01:46 Yes
31 H H H No 2 - TX 19862-AU17-FOYS BB H 1 09:05:14.50 1201.155 00:01:50 Yes
32 Poorshow Loft - LA 22410-AU17-AA BB H 2 09:05:15.90 1200.861 00:01:51 Yes
33 Pigeon Palace - LA 0350-AU17-LAF BB C 3 09:05:18.20 1200.378 00:01:54 Yes
34 A P C Loft - TX 17154-AU17-APC BB C 2 09:05:22.60 1199.455 00:01:58 Yes
35 Black Magic Loft - TX 0410-AU17-BLAC GRIZ C 2 09:05:34.60 1196.945 00:02:10 Yes
36 J B Loft - LA 0923-AU17-BRFT Chief BCWF C 1 09:05:39.00 1196.027 00:02:14 Yes
37 Gilbert Wiltz - TX 10938-AU17-AA BBWF C 1 09:05:43.00 1195.194 00:02:18 Yes
38 Ed Minvielle - LA 17032-AU17-A BB H 2 09:05:44.80 1194.820 00:02:20 Yes
39 Ganus Family Loft - IN 0746-AU17-GFL BB C 3 09:05:50.40 1193.656 00:02:26 Yes
40 El Dorado Loft - TX 0151-AU17-TEXA BC H 2 09:05:55.80 1192.536 00:02:31 Yes
41 Bucktown Loft - LA 1628-AU17-AUCO BB C 1 09:05:56.70 1192.350 00:02:32 Yes
42 A P C Loft - TX 17149-AU17-APC BBWF H 3 09:05:58.40 1191.998 00:02:34 Yes
43 Hollywood Lou Loft - FL 0045-AU17-HLOU BC C 2 09:05:58.50 1191.977 00:02:34 Yes
44 New Orleans Boys 2 - LA 0523-AU17-DELT BBPD C 1 09:06:00.10 1191.646 00:02:35 Yes
45 Aucoin & Rivero Loft - LA 1627-AU17-AUCO BC H 1 09:06:00.50 1191.563 00:02:36 Yes
46 Mcconnell Loft - FL 1842-AU17-GHC BC H 2 09:06:07.70 1190.076 00:02:43 Yes
46 Texas Trio 2 - TX 4135-AU17-TEXA BB C 4 09:06:07.70 1190.076 00:02:43 Yes
48 Clear Springs Loft - FL 17017-AU17-WARD BB H 2 09:06:08.10 1189.993 00:02:43 Yes
49 Texas Trio 2 - TX 4035-AU17-TEXA BBWF C 5 09:06:08.50 1189.911 00:02:44 Yes
50 Southern Belle - GA 0012-AU17-NEA DC H 1 09:06:09.30 1189.746 00:02:45 Yes
51 Nanez Family Lofts - WI 4190-AU17-NANE BB C 2 09:06:25.40 1186.435 00:03:01 Yes
52 Carroll Hoover - PA 1066-IF17-RLPC SIL H 2 09:06:31.90 1185.103 00:03:07 Yes
53 Red Ass Ranch - TX 0135-AU17-RAR BB C 3 09:06:36.70 1184.122 00:03:12 Yes
54 Bottoms Up Loft - TX 8667-AU17-AA BB C 2 09:07:08.20 1177.722 00:03:44 Yes
55 Oaktree - LA 0715-AU17-OAK BC H 1 09:07:37.30 1171.871 00:04:13 Yes
56 New Orleans Boys 2 - LA 0340-AU17-MET BB H 2 09:07:37.70 1171.791 00:04:13 Yes
57 El Dorado Loft - TX 0152-AU17-TEXA BB C 3 09:07:39.20 1171.491 00:04:15 Yes
58 Farmers Loft Of La - LA 0733-AU17-FARM BBP H 1 09:07:41.10 1171.111 00:04:16 Yes
59 Pigeon Palace - LA 0332-AU17-LAF BB H 4 09:07:44.20 1170.492 00:04:20 Yes
60 A P C Loft - TX 17141-AU17-APC BBWF H 4 09:07:48.70 1169.595 00:04:24 Yes
61 Red Ass Ranch - TX 0134-AU17-RAR BBWF C 4 09:07:49.40 1169.455 00:04:25 Yes
62 Pigeon Palace - LA 0369-AU17-LAF BB H 5 09:07:50.30 1169.276 00:04:26 Yes
63 Ed Minvielle - LA 17021-AU17-A BBWF C 3 09:07:51.70 1168.997 00:04:27 Yes
64 Lyons Loft - TX 1204-AU17-TXHC BB H 1 09:09:19.20 1151.832 00:05:55 Yes
65 Oaktree - LA 0719-AU17-OAK BC H 2 09:10:50.00 1134.545 00:07:25 Yes
66 Ed Minvielle - LA 17014-AU17-A BC C 4 09:11:26.40 1127.760 00:08:02 Yes
67 New Orleans Boys 2 - LA 0307-AU17-MET BB C 3 09:11:28.20 1127.427 00:08:04 Yes
68 H H H No 2 - TX 19854-AU17-FOYS BB H 2 09:12:38.30 1114.593 00:09:14 Yes
69 Black Magic Loft - TX 0402-AU17-BLAC BB H 3 09:12:39.80 1114.322 00:09:15 Yes
70 Farmers Loft Of La - LA 0726-AU17-FARM BCP H 2 09:13:36.70 1104.123 00:10:12 Yes
71 Cajun Express Loft - LA 0811-AU17-CEL BB C 1 09:14:01.80 1099.683 00:10:37 Yes
72 Johnson/Mailhes - LA 0150-AU17-LAF BC C 2 09:14:03.20 1099.436 00:10:39 Yes
73 J B Loft - LA 0924-AU17-BRFT Pied Piper Ii BBWF C 2 09:14:45.10 1092.107 00:11:20 Yes
74 Lighthouse Racing Pigeons - OH 4138-AU17-IHC BCWF C 1 09:14:45.40 1092.055 00:11:21 Yes
75 New Orleans Boys 2 - LA 0510-AU17-DELT BB H 4 09:14:47.00 1091.777 00:11:22 Yes
76 John Fukumoto - HI 0355-AU17-HAWN BB C 2 09:14:47.90 1091.620 00:11:23 Yes
77 Mcconnell Loft - FL 1802-AU17-GHC BBPD H 3 09:17:03.10 1068.643 00:13:38 Yes
78 Ed Minvielle - LA 17023-AU17-A BCSP C 5 09:18:43.90 1052.131 00:15:19 Yes
79 Redtex - TX 0016-AU17-REDT SILV C 1 09:18:54.80 1050.376 00:15:30 Yes
80 John Fukumoto - HI 0388-AU17-HAWN BB C 3 09:19:01.50 1049.301 00:15:37 Yes
81 Poorshow Loft - LA 22422-AU17-AA GRIZ C 3 09:19:02.20 1049.188 00:15:38 Yes
82 Toca Ridge Loft - LA 7384-AU17-AA GRIZ C 1 09:19:44.60 1042.432 00:16:20 Yes
83 Toca Ridge Loft - LA 7385-AU17-AA DC H 2 09:19:45.80 1042.242 00:16:21 Yes
84 A P C Loft - TX 17159-AU17-APC BB H 5 09:20:25.40 1036.013 00:17:01 Yes
85 Cajun Express Loft - LA 0816-AU17-CEL BB H 2 09:20:52.50 1031.793 00:17:28 Yes
86 R & R Loft - LA 0150-AU17-MILL BB C 2 09:20:58.40 1030.878 00:17:34 Yes
87 Black Gold Loft - TX 22119-AU17-AA BB C 3 09:21:17.30 1027.960 00:17:53 Yes
88 Vick Corso - LA 1252-AU17-CORS BC H 1 09:21:47.30 1023.363 00:18:23 Yes
89 New Orleans Boys 2 - LA 0314-AU17-MET BC H 5 09:21:49.70 1022.997 00:18:25 Yes
90 Bayou Lofts - LA 0724-AU17-BRFT BC H 1 09:21:50.60 1022.859 00:18:26 Yes
91 Hollywood Lou Loft - FL 0037-AU17-HLOU BBWF C 3 09:21:51.10 1022.783 00:18:26 Yes
92 Black Gold Loft - TX 22155-AU17-AA BB C 4 09:21:51.40 1022.737 00:18:27 Yes
93 Lewis Loft - LA 7319-AU17-CENL BC H 1 09:23:25.00 1008.670 00:20:00 Yes
94 Lyons Loft - TX 1202-AU17-TXHC BB C 2 09:26:05.70 985.400 00:22:41 Yes
95 Oaktree - LA 0726-AU17-OAK BCP H 3 09:28:39.50 964.113 00:25:15 Yes
96 B & S Loft 2 - LA 0783-AU17-LAF BCWF H 1 09:30:33.00 948.984 00:27:08 Yes
97 Gilbert Wiltz - TX 10941-AU17-AA BCWF C 2 09:32:07.10 936.796 00:28:43 Yes
98 Ed Minvielle - LA 17040-AU17-A BBWF H 6 09:32:30.40 933.827 00:29:06 Yes
99 Clear Springs Loft - FL 17064-AU17-WARD DC C 3 09:32:31.70 933.662 00:29:07 Yes
100 Carroll Hoover - PA 1070-IF17-RLPC BC C 3 09:32:43.90 932.115 00:29:19 Yes

There are 181 bird records

Note: These Race Results are unofficial and subject to change until verified by the Race Committee and declared final.